Dewpoint
20 20 19 18 16 16 18 22 31 35 36 34 33 32 32 32 36 38 44 54 57 59 61 63 65 65 65 66 66 65 65 65 65 65 64 65 65 64 64 63 63 63 63
23 22 21 20 20 19 20 23 29 29 27 27 26 25 25 25 25 26 31 39 51 54 57 60 62 64 64 64 64 65 65 65 65 65 65 64 64 63 63 64 64 63 62
24 24 23 23 23 23 23 24 25 25 25 23 21 21 21 21 21 22 24 28 33 45 52 55 57 58 63 63 64 64 63 63 64 64 64 65 65 64 63 63 63 63 63
25 25 24 24 25 24 24 23 23 23 22 21 20 20 20 19 18 18 19 23 25 28 38 48 51 54 57 61 59 59 60 61 61 62 64 64 64 64 64 63 63 63 63
25 25 24 25 25 24 24 22 22 21 19 19 19 20 20 19 18 17 17 19 22 23 27 40 46 49 52 55 57 57 57 58 59 60 61 60 61 62 62 63 63 63 63
25 25 25 25 25 24 23 22 21 22 21 20 19 19 18 18 18 19 18 18 19 22 27 31 34 39 47 50 52 52 55 55 55 57 57 58 58 59 59 59 59 60 61
25 24 24 24 24 23 23 22 23 21 21 23 17 17 19 19 17 16 18 18 19 20 23 25 29 32 35 43 46 47 49 51 52 53 55 56 55 55 56 57 57 57 57
24 23 23 23 23 23 23 22 21 20 21 21 17 16 11 13 18 18 17 17 17 19 21 25 29 30 32 34 39 41 44 45 46 48 50 52 53 53 53 52 52 53 53
23 22 22 22 23 23 21 21 21 19 18 19 20 17 11 7 15 19 17 17 17 18 19 23 27 26 28 31 34 37 39 40 42 43 44 47 50 49 50 50 50 50 50
22 22 22 22 22 22 20 20 21 20 19 16 17 18 19 18 12 12 16 17 18 18 17 20 25 24 26 28 32 34 36 38 39 40 41 42 42 44 46 46 46 46 46
23 22 21 21 20 19 20 19 19 19 19 17 15 15 16 16 17 14 12 13 16 18 19 20 23 24 28 28 27 30 33 36 37 38 38 39 39 40 40 40 42 43 43
21 21 20 20 19 19 18 18 19 18 18 18 18 17 14 12 14 14 14 13 14 16 18 20 21 24 25 26 27 29 30 31 33 36 36 36 36 36 37 37 38 39 40
19 19 19 18 18 19 19 18 17 17 17 17 18 18 19 18 17 16 15 15 13 15 17 19 22 24 23 26 27 25 27 29 31 33 34 34 34 34 35 35 36 36 37
19 20 20 19 18 18 18 18 17 17 17 17 17 18 19 19 19 19 17 15 14 16 15 17 20 21 21 24 27 23 21 27 28 30 31 31 31 32 32 33 34 34 34
20 20 19 18 18 17 17 17 17 17 17 17 17 17 18 19 20 20 19 18 14 12 13 16 17 20 20 20 25 20 20 24 24 26 28 29 30 30 31 32 32 32 33
20 19 18 17 17 16 16 16 16 17 16 17 17 17 17 18 19 20 20 19 19 17 14 19 19 19 19 19 22 21 20 22 24 25 27 28 29 30 30 31 31 31 32
20 19 17 17 17 16 16 16 16 16 15 15 16 16 16 17 18 19 19 19 19 18 15 18 20 20 18 19 20 20 20 20 21 25 26 27 28 29 30 30 30 30 30
20 19 18 17 16 16 16 16 15 16 15 15 16 16 16 16 16 17 18 17 18 19 18 15 18 18 18 20 20 19 19 20 21 24 26 26 28 28 29 30 29 30 29
21 21 20 18 17 16 16 16 16 15 16 16 16 15 15 15 15 16 16 17 18 19 19 18 17 20 20 21 20 20 20 21 22 24 25 26 26 28 29 29 29 28 28
22 24 26 23 18 17 16 16 16 16 16 16 16 16 16 16 15 16 16 16 17 17 18 18 18 18 19 20 21 19 19 21 21 23 24 24 28 27 24 26 27 28 26
26 26 22 19 18 17 16 16 16 16 15 15 15 15 16 17 18 18 16 16 16 16 17 17 17 18 18 18 17 20 20 21 23 24 22 22 23 20 21 24 24 25 25
21 19 18 18 17 17 18 19 18 17 17 16 15 15 16 19 20 20 22 23 22 19 18 18 18 18 19 19 20 20 21 21 17 22 22 19 20 20 22 23 25 24 25
23 22 18 18 17 17 19 20 20 19 18 18 18 18 18 19 20 21 22 22 22 24 26 24 23 22 21 22 22 20 20 20 20 21 21 21 22 21 22 23 25 24 24
21 18 18 18 17 18 19 20 20 22 21 21 20 19 19 20 20 20 20 20 20 21 20 20 23 23 23 22 22 21 20 20 22 23 23 21 22 22 23 24 25 23 23
19 18 19 17 16 16 19 19 19 20 20 19 20 20 20 20 21 21 21 20 21 21 22 22 22 23 24 25 25 23 22 23 22 23 25 23 23 22 22 21 22 24 22
20 22 19 17 19 17 20 20 20 20 18 19 19 19 20 20 21 20 21 20 19 19 20 20 20 21 21 22 22 23 26 23 22 20 21 23 21 20 18 20 21 22 22
Wind_Speed
13 11 10 10 10 9 11 12 14 14 16 15 15 15 16 15 15 12 15 27 27 27 29 27 21 12 14 13 16 15 14 13 11 8 8 7 8 8 8 7 5 7 7
13 12 10 10 10 10 11 13 14 15 16 15 17 15 15 14 15 13 11 16 27 28 27 27 28 26 19 17 18 19 20 16 13 12 8 5 5 6 6 7 6 5 4
13 12 11 10 9 10 12 13 14 15 16 15 18 15 14 15 14 15 13 12 12 23 27 27 27 28 25 24 23 24 24 23 23 19 15 12 7 2 5 7 6 6 5
13 12 11 9 8 10 11 13 13 16 16 15 15 15 14 13 14 12 13 12 12 13 15 24 25 25 26 25 26 26 25 23 23 23 23 26 21 14 10 3 3 2 1
12 12 11 9 9 10 10 10 12 12 16 15 15 15 15 16 15 13 15 15 14 13 12 18 22 26 25 25 23 23 23 25 24 22 23 26 26 25 26 26 24 22 16
12 12 11 10 10 11 10 11 15 12 12 14 14 16 15 14 14 15 15 14 15 15 15 15 15 15 24 22 21 20 20 21 23 21 22 22 23 24 24 23 23 23 25
12 12 11 10 9 10 10 12 11 14 11 5 6 11 13 14 16 14 13 14 15 15 16 15 14 14 15 19 21 19 17 16 17 17 19 19 22 22 21 20 22 20 21
12 11 11 10 10 11 11 10 8 7 5 7 4 4 3 3 9 11 12 11 13 12 15 15 16 16 16 15 16 18 17 15 14 13 14 16 17 18 19 19 19 19 19
11 12 11 11 10 11 12 8 9 7 6 6 7 4 3 2 2 5 9 10 11 12 11 12 13 14 14 15 15 15 15 13 12 12 10 11 15 16 15 15 16 15 16
10 11 11 10 10 9 9 7 5 6 6 6 4 7 6 4 3 2 4 6 8 10 10 9 10 11 12 13 14 14 14 13 12 11 10 10 8 10 12 12 12 12 12
10 11 11 12 12 10 8 7 6 6 4 6 4 3 4 5 4 3 3 2 5 7 8 8 7 8 10 11 13 13 14 14 12 11 10 9 10 10 10 9 10 10 11
10 11 12 12 12 12 11 11 10 10 8 8 6 5 3 3 3 3 4 2 4 4 6 7 7 7 8 9 10 13 13 13 12 11 9 8 8 9 9 9 9 9 10
9 11 13 12 12 12 12 12 13 12 10 11 10 10 8 6 3 4 4 4 3 1 2 6 6 6 6 9 10 12 13 12 11 10 10 9 8 8 8 9 9 10 10
12 11 13 13 12 13 13 13 13 12 12 12 12 11 11 9 7 3 4 6 4 2 2 2 5 6 6 7 9 11 11 12 11 11 9 9 8 7 7 7 8 8 9
11 13 13 13 12 12 12 12 12 12 12 11 10 10 10 9 9 9 8 4 4 5 3 2 2 3 4 5 6 8 10 12 12 10 9 8 7 7 7 7 7 8 8
13 14 13 13 12 11 12 12 12 10 12 9 8 10 9 7 9 9 8 8 6 3 4 1 1 1 3 4 6 7 9 10 9 9 9 8 8 7 7 7 7 7 8
14 13 12 12 12 11 10 11 10 10 11 10 8 9 8 7 7 7 7 6 7 4 4 1 1 0 2 4 6 8 7 7 8 10 9 8 8 8 8 7 6 6 8
13 13 13 12 11 10 8 9 9 8 9 8 8 8 7 5 6 5 5 5 5 4 3 2 0 1 1 2 4 6 6 5 7 8 9 8 8 7 6 6 6 6 7
15 13 13 11 10 9 8 7 8 7 7 7 6 5 4 4 4 3 3 3 2 2 2 1 1 1 2 2 3 3 4 4 6 9 8 8 8 8 7 8 8 8 7
15 11 8 8 7 8 8 7 6 5 4 4 3 3 2 1 1 1 0 0 1 1 1 2 2 3 3 2 2 3 4 3 10 9 8 6 6 6 9 8 8 8 10
11 11 9 7 6 6 6 7 6 5 4 3 1 0 1 2 3 3 2 3 3 3 3 4 5 3 5 3 3 2 5 8 8 3 4 4 6 10 9 9 9 10 12
12 11 9 8 7 5 6 7 7 7 5 5 4 3 3 3 5 7 8 7 9 9 10 8 8 8 7 5 3 5 5 4 5 1 2 9 5 11 11 10 10 12 13
10 8 7 8 8 4 4 4 3 7 7 6 6 5 4 5 5 3 6 9 10 12 10 10 12 10 8 6 4 8 8 7 8 9 2 9 3 9 9 8 12 14 14
9 8 7 7 6 4 2 3 4 4 5 4 5 6 8 8 8 8 8 10 11 11 12 10 9 12 12 13 12 10 11 7 6 11 6 6 4 9 10 11 14 16 16
9 8 6 6 5 3 2 3 3 1 3 5 5 7 8 10 12 13 11 12 12 12 14 17 17 17 18 18 16 11 14 9 7 4 5 5 7 7 6 11 12 11 12
10 8 8 7 6 4 2 3 5 3 6 6 6 9 12 13 15 16 13 15 16 16 12 11 11 13 16 15 17 12 8 11 9 7 4 6 3 3 6 4 4 7 9
Wind_Direction
102 96 86 81 78 78 80 81 81 78 74 70 63 65 63 59 56 53 45 48 50 50 50 47 52 74 78 84 91 90 94 89 88 102 122 133 136 143 141 136 125 143 151
112 105 96 88 81 85 86 86 85 82 74 68 65 56 57 54 52 50 50 40 45 46 48 45 43 50 60 68 76 79 76 71 72 69 69 108 156 166 168 162 159 152 167
106 107 99 89 87 90 94 89 83 79 78 70 65 56 53 47 47 46 44 47 34 40 43 44 44 42 43 62 63 68 65 69 65 60 59 57 62 110 196 188 182 182 193
111 107 103 95 94 93 96 94 92 84 80 75 71 60 58 54 50 46 48 45 42 36 35 42 42 42 41 60 64 62 62 62 60 57 62 62 61 68 68 115 177 145 206
111 114 111 109 107 102 96 100 86 99 92 80 74 62 56 55 52 51 49 46 44 43 36 33 39 39 43 44 59 60 59 60 59 57 61 67 63 65 68 66 67 69 61
111 111 109 112 115 111 108 100 103 83 94 92 81 69 61 59 56 52 52 51 48 47 45 43 37 33 40 43 46 50 51 59 59 50 56 66 69 63 64 65 61 60 67
111 112 112 113 118 124 122 114 106 106 88 46 98 72 57 56 54 49 48 49 47 46 50 46 44 39 36 39 44 42 45 48 52 54 53 55 63 65 63 62 62 56 61
116 113 119 120 124 125 122 121 127 122 90 33 104 95 113 66 52 43 46 49 49 50 49 48 50 46 42 37 38 41 39 39 46 51 53 60 59 58 53 51 51 50 50
109 116 117 120 123 130 133 131 130 126 131 58 67 127 125 164 106 21 40 48 52 54 53 53 51 48 44 39 33 35 41 39 41 46 49 61 63 62 50 41 44 44 46
100 104 107 106 108 117 126 127 127 123 123 136 86 61 73 125 145 134 44 39 53 54 51 53 58 51 47 41 32 45 41 38 37 42 47 49 50 45 41 33 34 34 38
96 100 104 105 103 103 105 116 121 127 103 138 126 126 81 67 84 124 147 90 65 43 44 52 53 53 48 43 36 40 38 34 33 30 38 42 41 26 17 10 17 25 28
97 97 98 98 98 97 99 100 100 101 107 106 107 107 128 147 154 133 117 116 124 48 52 52 50 49 44 39 45 40 40 35 30 25 26 30 22 17 11 13 18 17 19
116 112 108 103 99 98 96 98 95 93 95 100 101 93 90 93 120 119 120 123 135 110 75 52 35 45 45 43 44 41 29 26 24 23 20 23 23 18 9 9 14 14 10
131 124 113 110 107 104 100 97 92 90 92 92 92 89 85 70 71 88 128 142 119 113 77 99 39 49 45 37 37 30 16 10 9 7 8 9 5 359 357 356 1 6 6
125 120 114 110 104 100 99 98 97 95 91 90 89 89 84 73 71 71 77 93 130 161 174 167 128 37 30 34 26 18 3 352 350 344 344 352 352 346 346 344 343 349 350
120 120 116 113 109 105 104 103 100 99 97 88 86 87 78 69 68 65 68 68 68 114 144 168 153 99 14 7 10 7 348 346 340 336 330 331 332 332 330 327 329 333 336
128 124 120 116 112 109 108 107 106 106 101 97 89 90 80 77 70 63 62 65 65 71 114 111 107 8 357 355 348 347 341 340 338 331 325 320 319 318 323 320 324 342 342
127 127 122 117 115 110 111 117 111 110 109 105 102 100 90 89 80 72 72 74 76 64 95 139 25 350 307 326 319 327 334 335 342 335 335 334 336 328 323 340 341 348 3
132 130 129 131 134 131 120 109 111 110 108 109 106 101 101 93 87 81 77 77 81 89 101 136 290 277 275 297 323 318 322 330 335 329 329 329 322 324 324 325 323 324 339
136 139 139 139 140 137 132 128 121 116 106 104 99 94 94 83 74 58 49 254 192 208 193 215 264 276 262 291 300 310 326 319 324 318 310 324 353 16 351 340 338 331 323
146 146 147 146 144 145 150 151 149 151 155 155 143 230 265 257 255 232 230 251 232 247 252 251 260 264 282 297 300 280 295 312 303 265 328 351 350 330 326 326 321 315 312
146 140 147 151 156 166 188 178 170 179 190 200 218 247 253 279 295 287 281 261 224 238 248 245 255 257 263 269 267 286 287 310 320 300 40 310 295 302 297 308 304 316 311
147 152 159 160 163 174 195 204 223 194 204 216 231 235 245 242 266 265 287 284 289 289 259 238 250 251 256 251 243 274 266 259 258 275 301 301 255 291 293 293 301 304 303
150 152 156 153 153 172 206 247 259 136 188 217 233 243 246 256 258 260 260 264 266 271 273 272 232 246 237 251 236 246 254 259 267 274 223 243 271 280 290 288 291 296 295
153 155 164 165 169 192 235 256 264 219 268 266 259 254 250 255 257 265 259 252 257 259 261 266 265 254 251 249 243 233 245 243 261 235 211 239 264 286 272 281 282 294 305
164 165 164 173 181 189 250 270 275 251 270 277 263 255 266 267 262 265 258 242 249 255 254 258 264 265 266 272 272 268 214 244 250 280 252 204 244 312 308 279 307 302 301